Location: Bluff Heights
(33.7692°N, 118.1592°W)
Time: 03:25:10
(UTC+00:00)

Vanguard 1 Rocket - Pass Details

Date: 02 October 2021
Orbit: 650 x 4225 km, 34.3° (Epoch: 24 October)

Event Time Altitude Azimuth Distance (km) Brightness Sun altitude
Exits shadow 10:09:51 13° 168° (SSE) 5,347 11.1 -44.3°
Drops below altitude 10° 10:11:36 10° 164° (SSE) 5,755 11.3 -44.0°
Sets 10:18:49 0° 152° (SSE) 7,436 12.0 -42.8°
